Погода в Светлом

Россия / Республика Марий Эл     56°33′05″N   47°50′16″E
темп.,
°C
ветер,
м/с
пор.,
м/с
влажн.,
%
обл.,
%
осадки,
мм/ч
давл.,
гПа
погр.,
м
20 апреля, вт
вт2000:000в313590 0.0 1031360
03:00−1в412580 0.0 1032326
06:000в411590 0.0 1032359
09:00+6вюв58440 0.0 1031895
12:00+9вюв58340 0.0 10301554
15:00+9вюв68320 0.0 10291557
18:00+7вюв4104312 0.0 1028407
21:00+3вюв4145491 0.0 1027400
21 апреля, ср
ср2100:00+3вюв51551100 0.0 1025641
03:00+3вюв61649100 0.0 1024723
06:00+4юв71750100 0.0 1022840
09:00+5юв81752100 0.1 10211102
12:00+1юв81997100 3.7 1020807
15:00+2юв71793100 8.8 1019855
18:00+2ююв71695100 2.6 1019847
21:00+2ююв71594100 2.7 1018779
22 апреля, чт
чт2200:00+2ююв61496100 0.4 1018696
03:00+3ююв51297100 0.4 1019485
06:00+3ююв41097100 0.0 1020436
09:00+5ююв41095100 0.0 1020467
12:00+7ю4991100 0.0 1021777
15:00+8ююв498748 0.3 1021544
18:00+8ю378834 1.9 1021176
21:00+6ююв259672 2.1 1022107
23 апреля, пт
пт2300:00+6ю229752 0.1 102257
03:00+4ю11957 0.1 102313
06:00+5ююв12915 0.0 102351
09:00+10ю24705 0.0 1024536
12:00+13ююз345988 0.0 10231276
15:00+14ю235410 0.1 10221416
18:00+11юв37745 0.1 1022173
21:00+7юв37895 0.1 1022112
24 апреля, сб
сб2400:00+6юв389338 0.0 1021163
03:00+5юв389460 0.0 1020150
06:00+6юв3988100 0.0 1020312
09:00+10юв4673100 0.0 1019615
12:00+12вюв3458100 0.0 10171272
15:00+13в4451100 0.0 10151603
18:00+10вюв4763100 0.0 1015453
21:00+6в3984100 0.0 1014246